Location: Kalberh�ni
(46.4610°N, 7.2453°E)
Time: 05:40:50
(UTC+00:00)

Cosmos 2333 Rocket - Pass Details

Date: 23 October 2021
Orbit: 837 x 865 km, 70.8° (Epoch: 05 December)

Event Time Altitude Azimuth Distance (km) Brightness Sun altitude
Rises 18:32:31 0° 182° (S) 3,381 5.3 -21.7°
Reaches altitude 10° 18:35:04 10° 175° (S) 2,454 4.5 -22.1°
Enters shadow 18:37:44 26° 157° (SSE) 1,606 3.4 -22.6°
